TimeEST,TemperatureF,Dew PointF,Humidity,Sea Level PressureIn,VisibilityMPH,Wind Direction,Wind SpeedMPH,Gust SpeedMPH,PrecipitationIn,Events,Conditions,WindDirDegrees,DateUTC
12:16 AM,30.2,26.6,86,29.95,7.0,SW,3.5,-,N/A,,Overcast,220,2013-02-14 05:16:00
12:53 AM,30.0,26.1,85,29.97,6.0,SSW,5.8,-,N/A,,Overcast,200,2013-02-14 05:53:00
1:39 AM,30.2,26.6,86,29.95,6.0,South,3.5,-,N/A,,Scattered Clouds,180,2013-02-14 06:39:00
1:53 AM,28.9,26.1,89,29.98,6.0,South,3.5,-,N/A,,Clear,180,2013-02-14 06:53:00
2:53 AM,28.0,25.0,88,29.99,5.0,SSE,3.5,-,N/A,,Clear,150,2013-02-14 07:53:00
3:53 AM,28.9,26.1,89,29.99,6.0,SSE,4.6,-,N/A,,Overcast,160,2013-02-14 08:53:00
4:53 AM,30.0,27.0,88,29.99,7.0,South,5.8,-,N/A,,Overcast,170,2013-02-14 09:53:00
5:53 AM,30.0,27.0,88,30.00,7.0,SSE,4.6,-,N/A,,Mostly Cloudy,160,2013-02-14 10:53:00
6:53 AM,30.0,27.0,88,30.01,6.0,South,5.8,-,N/A,,Clear,180,2013-02-14 11:53:00
7:46 AM,30.2,28.4,93,29.98,5.0,South,8.1,-,N/A,,Mostly Cloudy,170,2013-02-14 12:46:00
7:53 AM,30.9,28.0,89,30.01,5.0,South,6.9,-,N/A,,Mostly Cloudy,180,2013-02-14 12:53:00
8:07 AM,30.2,28.4,93,29.98,5.0,South,6.9,-,N/A,,Scattered Clouds,170,2013-02-14 13:07:00
8:49 AM,32.0,28.4,87,29.98,6.0,South,8.1,-,N/A,,Mostly Cloudy,180,2013-02-14 13:49:00
8:53 AM,32.0,28.9,88,30.01,6.0,South,8.1,-,N/A,,Mostly Cloudy,180,2013-02-14 13:53:00
9:53 AM,34.0,30.0,85,30.01,7.0,South,6.9,-,N/A,,Overcast,180,2013-02-14 14:53:00
10:53 AM,36.0,30.9,82,30.01,8.0,SSW,13.8,17.3,N/A,,Overcast,200,2013-02-14 15:53:00
11:53 AM,37.0,32.0,82,30.01,9.0,South,11.5,-,N/A,,Overcast,190,2013-02-14 16:53:00
12:53 PM,41.0,34.0,76,29.97,10.0,South,11.5,-,N/A,,Scattered Clouds,180,2013-02-14 17:53:00
1:53 PM,45.0,33.1,63,29.94,10.0,South,11.5,18.4,N/A,,Scattered Clouds,190,2013-02-14 18:53:00
2:53 PM,45.0,32.0,60,29.93,10.0,SSW,11.5,20.7,N/A,,Overcast,200,2013-02-14 19:53:00
3:53 PM,46.0,30.9,56,29.91,10.0,SSW,13.8,23.0,N/A,,Mostly Cloudy,200,2013-02-14 20:53:00
4:53 PM,46.9,30.9,54,29.91,10.0,South,9.2,17.3,N/A,,Mostly Cloudy,190,2013-02-14 21:53:00
5:53 PM,46.9,30.9,54,29.92,10.0,SSW,9.2,-,N/A,,Mostly Cloudy,200,2013-02-14 22:53:00
6:53 PM,45.0,30.9,58,29.94,10.0,SSE,5.8,-,N/A,,Mostly Cloudy,160,2013-02-14 23:53:00
7:53 PM,44.1,30.9,60,29.95,10.0,South,9.2,-,N/A,,Scattered Clouds,180,2013-02-15 00:53:00
8:53 PM,44.1,30.9,60,29.95,10.0,SSW,4.6,-,N/A,,Mostly Cloudy,200,2013-02-15 01:53:00
9:53 PM,45.0,30.9,58,29.96,10.0,SSW,6.9,-,N/A,,Partly Cloudy,210,2013-02-15 02:53:00
10:53 PM,44.1,30.9,60,29.96,10.0,SW,6.9,-,N/A,,Clear,230,2013-02-15 03:53:00
11:53 PM,43.0,30.9,62,29.97,10.0,WSW,5.8,-,N/A,,Clear,240,2013-02-15 04:53:00